When you browse on this site, cookies collect data to enhance your experience and personalize the content and advertising you see.
Visit our Privacy Policy to learn more. By continuing to use the site, you agree to this use of cookies and data.
  • In Czech Republic
  • List of Countries
  • For 7 days
  • Water Temperature
  • Weather Map
  • Weather Widgets
  • user-avatar
    Login

    Hourly Weather Sydney

    Today, 19 November, Tuesday

    Time Temperature Precipitation Wind Pressure Humidity
    00:00 +19°C° 0 mm 2 mps 758 mmHg 59%
    01:00 +18°C° 0 mm 2 mps 758 mmHg 56%
    02:00 +18°C° 0 mm 2 mps 758 mmHg 52%
    03:00 +17°C° 0 mm 3 mps 758 mmHg 48%
    04:00 +17°C° 0 mm 2 mps 758 mmHg 43%
    05:00 +19°C° 0 mm 2 mps 758 mmHg 39%
    06:00 +21°C° 0 mm 2 mps 758 mmHg 34%
    07:00 +24°C° 0 mm 2 mps 758 mmHg 30%
    08:00 +27°C° 0 mm 2 mps 758 mmHg 25%
    09:00 +31°C° 0 mm 2 mps 758 mmHg 20%
    10:00 +35°C° 0 mm 1 mps 757 mmHg 14%
    11:00 +37°C° 0 mm 2 mps 757 mmHg 13%
    12:00 +38°C° 0 mm 3 mps 756 mmHg 11%
    13:00 +40°C° 0 mm 4 mps 756 mmHg 10%
    14:00 +39°C° 0 mm 5 mps 755 mmHg 12%
    15:00 +37°C° 0 mm 5 mps 755 mmHg 13%
    16:00 +36°C° 0 mm 6 mps 755 mmHg 14%
    17:00 +32°C° 0 mm 6 mps 755 mmHg 29%
    18:00 +28°C° 0 mm 7 mps 756 mmHg 44%
    19:00 +23°C° 0 mm 7 mps 757 mmHg 59%
    20:00 +22°C° 0 mm 7 mps 758 mmHg 64%
    21:00 +21°C° 0 mm 7 mps 759 mmHg 69%
    22:00 +20°C° 0 mm 8 mps 760 mmHg 76%
    23:00 +18°C° 0 mm 7 mps 760 mmHg 77%

    Tomorrow, 20 November, Wednesday

    Time Temperature Precipitation Wind Pressure Humidity
    00:00 +18°C° 0 mm 7 mps 760 mmHg 78%
    01:00 +19°C° 0 mm 6 mps 760 mmHg 78%
    02:00 +19°C° 0 mm 6 mps 760 mmHg 77%
    03:00 +19°C° 0 mm 5 mps 760 mmHg 75%
    04:00 +19°C° 0 mm 5 mps 760 mmHg 74%
    05:00 +19°C° 0 mm 4 mps 761 mmHg 72%
    06:00 +19°C° 0 mm 4 mps 761 mmHg 71%
    07:00 +19°C° 0 mm 3 mps 762 mmHg 70%
    08:00 +20°C° 0 mm 3 mps 762 mmHg 67%
    09:00 +21°C° 0 mm 3 mps 762 mmHg 64%
    10:00 +21°C° 0 mm 2 mps 762 mmHg 60%
    11:00 +24°C° 0 mm 3 mps 761 mmHg 56%
    12:00 +25°C° 0 mm 3 mps 761 mmHg 52%
    13:00 +26°C° 0 mm 3 mps 761 mmHg 48%
    14:00 +26°C° 0 mm 4 mps 760 mmHg 50%
    15:00 +25°C° 0 mm 4 mps 760 mmHg 53%
    16:00 +25°C° 0 mm 4 mps 759 mmHg 55%
    17:00 +22°C° 0 mm 4 mps 760 mmHg 63%
    18:00 +21°C° 0 mm 3 mps 761 mmHg 72%
    19:00 +20°C° 0 mm 3 mps 761 mmHg 80%
    20:00 +19°C° 0 mm 2 mps 762 mmHg 83%
    21:00 +20°C° 0 mm 1 mps 762 mmHg 86%
    22:00 +20°C° 0 mm 1 mps 762 mmHg 88%
    23:00 +19°C° 0 mm 1 mps 762 mmHg 89%

    Day after tomorrow, 21 November, Thursday

    Time Temperature Precipitation Wind Pressure Humidity
    00:00 +18°C° 0 mm 2 mps 761 mmHg 90%
    01:00 +17°C° 0 mm 2 mps 761 mmHg 91%
    02:00 +17°C° 0 mm 2 mps 761 mmHg 91%
    03:00 +17°C° 0 mm 2 mps 760 mmHg 91%
    04:00 +18°C° 0 mm 1 mps 760 mmHg 91%
    05:00 +20°C° 0 mm 1 mps 760 mmHg 85%
    06:00 +21°C° 0 mm 1 mps 760 mmHg 79%
    07:00 +23°C° 0 mm 1 mps 761 mmHg 72%
    08:00 +26°C° 0 mm 2 mps 760 mmHg 61%
    09:00 +28°C° 0 mm 3 mps 760 mmHg 50%
    10:00 +32°C° 0 mm 4 mps 760 mmHg 40%
    11:00 +33°C° 0 mm 5 mps 759 mmHg 38%
    12:00 +34°C° 0 mm 6 mps 758 mmHg 36%
    13:00 +35°C° 0 mm 7 mps 757 mmHg 34%
    14:00 +34°C° 0 mm 7 mps 756 mmHg 39%
    15:00 +33°C° 0 mm 8 mps 756 mmHg 43%
    16:00 +32°C° 0 mm 8 mps 755 mmHg 48%
    17:00 +31°C° 0 mm 8 mps 755 mmHg 53%
    18:00 +28°C° 0 mm 8 mps 756 mmHg 58%
    19:00 +26°C° 0 mm 8 mps 756 mmHg 62%
    20:00 +26°C° 0 mm 7 mps 756 mmHg 64%
    21:00 +24°C° 0 mm 6 mps 756 mmHg 66%
    22:00 +25°C° 0 mm 5 mps 756 mmHg 68%
    23:00 +23°C° 0 mm 4 mps 756 mmHg 69%

    22 November, Friday

    Time Temperature Precipitation Wind Pressure Humidity
    00:00 +24°C° 0 mm 3 mps 756 mmHg 69%
    01:00 +24°C° 0 mm 3 mps 755 mmHg 69%
    02:00 +24°C° 0 mm 3 mps 756 mmHg 65%
    03:00 +23°C° 0 mm 4 mps 756 mmHg 61%
    04:00 +25°C° 0 mm 4 mps 756 mmHg 57%
    05:00 +25°C° 0 mm 5 mps 757 mmHg 58%
    06:00 +24°C° 0 mm 6 mps 758 mmHg 60%
    07:00 +24°C° 0 mm 6 mps 758 mmHg 62%
    08:00 +24°C° 0 mm 7 mps 759 mmHg 59%
    09:00 +26°C° 0 mm 7 mps 759 mmHg 56%
    10:00 +27°C° 0 mm 8 mps 759 mmHg 54%
    11:00 +26°C° 0.2 mm 7 mps 759 mmHg 56%
    12:00 +26°C° 0.2 mm 6 mps 759 mmHg 59%
    13:00 +26°C° 0.2 mm 5 mps 759 mmHg 61%
    14:00 +25°C° 0.5 mm 5 mps 759 mmHg 65%
    15:00 +23°C° 0.5 mm 4 mps 759 mmHg 70%
    16:00 +22°C° 0.5 mm 4 mps 759 mmHg 74%
    17:00 +21°C° 0.1 mm 3 mps 759 mmHg 78%
    18:00 +21°C° 0.1 mm 2 mps 760 mmHg 81%
    19:00 +21°C° 0.1 mm 1 mps 760 mmHg 85%
    20:00 +21°C° 0.5 mm 1 mps 760 mmHg 86%
    21:00 +21°C° 0.5 mm 1 mps 760 mmHg 88%
    22:00 +20°C° 0.5 mm 2 mps 760 mmHg 89%
    23:00 +20°C° 0.5 mm 2 mps 760 mmHg 90%

    23 November, Saturday

    Time Temperature Precipitation Wind Pressure Humidity
    00:00 +20°C° 0.5 mm 2 mps 760 mmHg 90%
    01:00 +20°C° 0.5 mm 2 mps 759 mmHg 91%
    02:00 +19°C° 0.1 mm 2 mps 759 mmHg 91%
    03:00 +19°C° 0.1 mm 2 mps 759 mmHg 92%
    04:00 +20°C° 0.1 mm 1 mps 759 mmHg 93%
    05:00 +21°C° 0.1 mm 1 mps 759 mmHg 89%
    06:00 +22°C° 0.1 mm 1 mps 759 mmHg 86%
    07:00 +23°C° 0.1 mm 1 mps 759 mmHg 83%
    08:00 +26°C° 0 mm 1 mps 759 mmHg 71%
    09:00 +28°C° 0 mm 1 mps 759 mmHg 59%
    10:00 +31°C° 0 mm 2 mps 759 mmHg 48%
    11:00 +33°C° 0 mm 3 mps 758 mmHg 48%
    12:00 +33°C° 0 mm 4 mps 758 mmHg 48%
    13:00 +33°C° 0 mm 5 mps 757 mmHg 48%
    14:00 +32°C° 0.1 mm 4 mps 757 mmHg 54%
    15:00 +29°C° 0.1 mm 4 mps 757 mmHg 61%
    16:00 +28°C° 0.1 mm 4 mps 757 mmHg 67%
    17:00 +26°C° 0 mm 4 mps 757 mmHg 73%
    18:00 +25°C° 0 mm 4 mps 758 mmHg 79%
    19:00 +23°C° 0 mm 4 mps 759 mmHg 85%
    20:00 +22°C° 0 mm 6 mps 760 mmHg 84%
    21:00 +22°C° 0 mm 7 mps 760 mmHg 83%
    22:00 +22°C° 0 mm 9 mps 761 mmHg 82%
    23:00 +21°C° 0 mm 9 mps 762 mmHg 79%

    24 November, Sunday

    Time Temperature Precipitation Wind Pressure Humidity
    00:00 +21°C° 0 mm 9 mps 762 mmHg 76%
    01:00 +19°C° 0 mm 9 mps 762 mmHg 73%
    02:00 +20°C° 0.1 mm 8 mps 763 mmHg 72%
    03:00 +18°C° 0.1 mm 8 mps 763 mmHg 70%
    04:00 +18°C° 0.1 mm 7 mps 763 mmHg 69%
    05:00 +19°C° 0 mm 6 mps 764 mmHg 70%
    06:00 +19°C° 0 mm 6 mps 764 mmHg 72%
    07:00 +19°C° 0 mm 6 mps 764 mmHg 73%
    08:00 +19°C° 0 mm 5 mps 764 mmHg 72%
    09:00 +20°C° 0 mm 5 mps 764 mmHg 70%
    10:00 +20°C° 0 mm 5 mps 764 mmHg 68%
    11:00 +21°C° 0 mm 5 mps 763 mmHg 67%
    12:00 +21°C° 0 mm 4 mps 762 mmHg 65%
    13:00 +22°C° 0 mm 4 mps 762 mmHg 64%
    14:00 +22°C° 0 mm 4 mps 761 mmHg 65%
    15:00 +22°C° 0 mm 4 mps 761 mmHg 65%
    16:00 +22°C° 0 mm 4 mps 760 mmHg 66%
    17:00 +21°C° 0 mm 4 mps 760 mmHg 71%
    18:00 +20°C° 0 mm 3 mps 761 mmHg 77%
    19:00 +20°C° 0 mm 2 mps 761 mmHg 82%
    20:00 +20°C° 0.1 mm 2 mps 761 mmHg 83%
    21:00 +21°C° 0.1 mm 1 mps 761 mmHg 84%
    22:00 +21°C° 0.1 mm 1 mps 761 mmHg 85%
    23:00 +20°C° 0 mm 1 mps 761 mmHg 86%
    Show more